Tracking 35048 objects as of 19-Aug-2026
HD Live streaming from Space Station
objects crossing your sky now

STARLINK-5787

Track STARLINK-5787 now!
10-day predictions
STARLINK-5787 is classified as:


NORAD ID: 56004
Int'l Code: 2023-042U
Launch date: March 24, 2022
Source: United States (US)
Launch site: AIR FORCE EASTERN TEST RANGE (AFETR)
Your satellite tracking list
Your tracking list is empty




NASA's NSSDC Master Catalog

Two Line Element Set (TLE):
1 56004U 23042U   26231.01385436 -.00000174  00000-0  32056-5 0  9994
2 56004  43.0002 226.3976 0001090 264.8061  95.2666 15.27576471187654
Source of the keplerian elements: AFSPC